Theta_e
297 296 296 295 294 292 293 294 294 293 293 293 293 293 293 292 292 292 293 294 295 298 302 304 305 306 306 306 307 308 309 315 317 321 328 333 331 323 322 324 329 328 325
297 296 296 295 294 294 293 292 293 292 293 294 293 293 292 292 290 290 291 292 294 295 298 302 304 305 306 307 307 308 309 311 314 319 329 333 332 327 324 328 328 327 325
297 296 295 295 295 294 293 292 291 291 292 293 293 292 292 290 289 289 290 290 292 294 295 296 301 304 305 305 307 308 308 310 313 318 326 331 331 328 324 328 328 327 323
297 296 295 295 295 294 293 292 292 291 291 293 292 292 291 290 290 290 289 290 290 292 294 295 297 302 304 305 305 307 308 309 312 316 325 330 331 328 325 329 328 325 324
297 296 295 295 295 294 293 293 292 292 291 292 291 291 291 290 290 290 290 290 290 291 293 295 296 299 302 304 305 306 308 310 312 315 323 329 330 327 329 328 327 324 324
296 295 295 295 294 294 293 293 292 292 291 290 290 290 290 289 290 290 290 290 291 291 292 294 296 297 299 302 304 305 307 309 313 315 321 330 331 326 329 328 327 325 324
294 293 293 293 293 293 293 293 292 291 291 290 290 290 290 290 289 291 292 292 292 292 291 293 295 296 298 301 304 305 306 308 313 316 318 329 328 328 329 327 326 325 323
293 293 293 293 292 292 292 293 292 291 291 290 290 288 288 288 290 291 292 293 294 293 292 292 295 296 298 298 303 303 305 308 311 314 319 325 328 327 328 327 326 325 323
293 293 292 292 291 291 291 291 292 291 291 290 290 289 285 288 286 289 291 291 292 294 294 293 295 297 298 298 299 300 300 305 308 312 316 327 328 326 328 327 326 325 322
292 292 291 291 291 291 290 290 290 290 291 289 289 289 290 288 286 288 289 291 292 293 294 293 295 297 298 298 299 300 303 302 304 315 323 328 327 325 328 327 326 324 322
290 290 290 290 290 290 290 290 290 290 290 290 289 289 288 288 288 285 288 290 291 291 292 296 296 298 298 299 299 301 303 303 301 314 322 327 326 328 327 327 326 323 321
289 290 290 290 290 290 290 290 290 290 290 289 289 289 289 289 287 287 287 287 289 292 292 295 297 298 299 299 299 301 303 304 302 311 324 327 326 328 325 327 326 323 321
290 290 290 290 290 289 289 290 290 290 289 289 289 289 289 289 289 288 288 286 289 290 291 293 296 298 299 300 300 301 302 303 308 314 323 328 326 326 322 327 325 323 321
290 290 290 290 290 290 290 289 289 289 289 289 288 288 288 289 289 289 288 288 289 290 290 291 294 296 298 299 301 302 302 304 313 319 323 327 326 324 326 326 325 323 321
290 290 290 289 289 289 289 288 288 288 288 288 288 289 289 289 289 289 289 288 289 291 291 291 293 295 297 299 300 301 303 304 313 322 325 325 324 322 325 325 323 322 320
289 289 289 289 288 287 288 287 287 286 287 287 287 288 288 288 288 289 288 288 288 289 292 291 292 295 297 299 300 300 303 304 314 323 325 324 323 325 324 323 323 321 319
288 289 289 287 286 286 287 287 286 286 286 286 287 287 288 288 288 287 288 288 288 289 290 290 291 293 296 299 301 301 302 304 315 323 325 323 322 324 323 323 321 320 318
287 288 287 286 286 286 286 286 286 286 285 285 286 286 287 286 287 287 288 287 288 289 290 291 292 293 295 300 302 302 302 304 314 322 322 322 323 325 324 322 320 319 317
286 286 286 286 286 286 286 286 286 286 285 285 285 285 285 286 286 287 287 287 287 289 290 291 292 294 296 302 303 303 304 305 313 322 322 322 323 324 323 321 319 318 316
286 286 286 286 286 286 286 287 286 286 285 285 285 285 285 286 286 287 287 287 287 288 289 290 292 295 298 301 302 303 304 307 314 321 323 323 323 323 322 320 318 317 316
285 285 286 286 286 287 288 287 286 286 286 286 285 285 285 285 286 287 287 287 287 288 289 289 290 294 299 302 302 303 305 309 311 318 320 323 322 322 321 319 317 317 316
285 286 286 286 287 288 288 287 287 286 286 286 285 285 285 287 286 287 287 287 287 288 289 289 290 296 300 301 303 303 306 311 314 317 316 316 321 320 320 317 317 317 316
286 286 286 287 288 288 288 287 287 286 286 285 285 285 286 287 286 286 287 287 287 289 289 290 292 299 302 301 302 305 309 310 308 310 317 304 318 315 318 317 316 317 317
286 286 287 287 289 289 288 288 287 286 285 285 285 285 286 286 286 286 286 287 288 288 289 291 298 301 302 301 304 307 309 308 309 310 312 302 307 309 316 317 318 317 317
286 287 287 288 289 290 289 288 288 286 285 285 285 286 286 285 286 286 286 287 287 288 289 291 296 302 303 303 305 308 309 308 307 305 306 302 300 307 313 312 315 317 317
286 287 288 288 290 290 288 287 287 286 286 286 286 286 285 286 286 286 286 287 288 288 289 293 301 303 304 305 307 309 309 306 305 306 306 302 305 307 300 303 311 315 316
Wind_Speed
8 7 5 5 4 3 5 7 7 7 7 7 6 6 8 10 12 12 12 11 10 7 7 9 10 8 8 8 8 7 7 14 6 10 12 17 27 26 20 18 22 24 24
12 11 9 7 5 4 5 8 8 9 9 8 8 8 11 14 17 15 14 15 15 12 8 8 10 10 9 9 9 8 7 9 6 8 11 22 28 26 21 24 24 25 25
16 14 12 11 9 7 7 7 8 9 10 9 9 11 14 16 16 14 14 14 17 17 13 12 10 10 11 10 10 10 9 9 8 9 10 21 25 27 25 26 26 27 26
19 18 16 14 12 12 11 10 10 10 10 12 12 14 16 17 16 16 16 16 16 18 17 14 12 9 9 10 10 11 10 10 9 10 12 21 26 30 27 29 29 29 28
19 19 18 17 17 17 17 15 13 12 11 13 15 15 16 19 20 19 21 19 17 17 19 18 13 12 8 9 11 10 11 10 10 10 11 22 29 30 32 32 30 30 29
14 17 18 18 20 22 21 20 19 17 14 13 13 16 18 21 20 21 15 15 16 17 19 21 16 14 13 8 10 8 10 11 10 10 8 25 31 33 35 34 33 32 30
11 13 16 18 18 22 25 24 22 20 18 16 12 13 15 20 11 6 6 10 14 15 17 21 19 15 14 9 9 8 8 11 11 8 9 20 33 34 36 36 35 34 31
15 17 17 17 18 21 22 24 25 24 21 17 7 2 3 4 3 3 4 4 7 12 15 18 18 14 12 11 11 10 8 9 10 10 8 15 29 34 35 36 36 34 32
17 18 20 22 21 20 21 20 24 27 26 21 19 7 0 3 3 3 3 2 4 7 12 17 17 13 12 11 10 9 7 12 10 10 13 19 32 36 40 37 38 35 32
21 22 24 25 25 24 25 24 25 28 29 24 16 23 18 5 2 2 2 2 2 4 5 14 15 12 12 11 10 8 6 8 14 22 20 26 34 36 40 39 39 35 32
24 26 26 26 27 27 28 28 26 27 29 29 26 18 24 13 10 3 2 3 1 3 5 7 10 12 13 11 9 7 4 6 11 25 18 24 41 39 38 39 36 34 32
27 27 27 28 29 30 31 31 29 30 34 34 32 29 22 13 8 5 2 5 3 1 5 6 7 11 11 8 10 7 4 6 11 27 17 31 41 41 37 35 36 34 33
34 32 29 28 29 30 31 34 31 29 32 32 33 31 31 27 19 19 13 3 3 2 2 5 8 10 11 9 9 7 5 3 13 21 17 35 39 41 38 39 37 36 34
37 35 30 25 21 25 29 29 30 31 29 28 31 32 30 29 29 24 18 9 2 2 1 2 6 8 11 9 8 7 5 2 13 17 18 41 46 40 40 38 38 35 34
33 31 27 25 20 25 25 26 25 27 31 35 35 31 29 30 31 29 26 20 8 4 4 2 3 7 9 9 8 6 5 3 11 19 35 42 41 39 38 39 37 36 35
29 28 25 17 22 22 23 20 24 24 26 30 29 32 31 27 28 30 27 25 21 4 3 6 3 7 9 9 8 8 5 5 9 26 49 41 41 40 40 39 38 37 35
23 24 19 17 18 18 21 20 23 23 22 25 27 26 25 27 30 27 26 24 21 14 3 5 4 6 8 9 9 10 7 7 13 29 44 46 39 39 44 40 37 35 35
21 24 16 19 20 20 18 15 18 19 22 20 23 24 29 26 26 25 25 22 22 17 5 9 7 6 8 10 11 10 8 9 13 36 44 40 41 41 39 37 36 35 34
20 19 19 22 21 20 17 11 12 15 20 23 26 26 25 28 26 26 26 25 21 19 10 13 7 8 9 10 9 10 9 10 13 45 43 43 38 38 36 37 34 35 35
22 24 24 23 23 19 12 8 9 13 17 23 29 28 30 27 29 28 29 25 24 21 18 9 10 10 10 13 11 12 10 11 14 43 41 37 38 37 37 36 35 36 35
25 26 26 26 21 14 7 7 12 15 20 25 29 30 28 28 25 30 28 25 25 23 22 14 8 7 10 17 11 10 12 15 17 32 40 37 38 38 39 36 35 35 34
28 28 28 25 20 11 2 6 13 19 23 28 28 28 26 27 30 29 27 27 24 26 22 14 8 12 14 16 13 16 18 15 8 29 33 28 38 41 40 38 36 34 33
28 28 26 25 20 15 6 7 14 22 27 29 29 31 29 31 31 29 27 26 21 26 25 21 17 15 18 21 17 17 13 10 17 32 41 26 43 37 41 38 34 33 31
27 26 26 27 25 23 20 21 20 27 30 31 30 31 28 30 29 29 30 27 24 24 23 19 15 13 20 21 20 15 23 33 29 32 40 17 33 38 40 37 36 31 29
27 26 27 29 29 30 28 27 28 31 33 33 31 27 34 31 30 29 29 29 27 24 20 16 10 13 20 20 19 26 29 29 23 20 23 30 24 42 37 33 36 32 30
27 26 29 33 34 32 28 30 31 32 32 32 32 32 31 31 31 29 30 29 26 24 21 17 13 18 19 20 21 27 33 29 30 18 21 16 34 30 12 27 31 35 32
Wind_Direction
258 278 287 312 324 308 263 265 274 293 289 289 293 300 316 320 314 299 278 267 268 295 277 258 265 270 268 265 257 255 256 211 232 226 201 201 187 179 181 179 171 158 153
250 260 257 270 280 295 292 279 273 286 283 268 266 290 310 318 313 301 278 263 257 260 267 265 259 265 262 257 253 251 246 233 257 232 192 191 190 185 184 176 172 160 155
253 254 253 255 258 262 283 282 277 286 277 253 257 288 305 314 318 303 290 271 256 249 249 247 262 262 259 254 250 247 245 242 252 234 169 182 193 183 182 176 169 163 155
253 252 252 258 262 254 257 258 258 276 272 250 267 287 297 302 307 303 294 278 265 251 239 237 243 260 259 250 246 243 240 242 246 245 169 188 190 181 179 172 169 163 157
256 249 252 262 261 257 251 252 250 257 260 253 273 285 292 297 300 296 291 275 261 253 237 231 232 239 244 267 238 238 235 239 242 250 182 178 186 179 176 171 168 164 158
247 248 260 263 261 259 256 249 247 248 253 267 273 279 291 296 293 290 280 272 258 248 236 228 230 231 231 260 226 232 231 232 237 250 193 180 187 180 175 169 167 165 160
255 260 264 262 260 261 260 253 251 246 245 251 271 290 298 294 280 280 289 275 257 248 235 225 224 230 228 227 226 233 237 226 228 238 230 173 182 180 175 170 168 165 162
270 268 259 263 270 271 260 250 246 242 241 234 213 260 319 323 277 222 360 333 265 246 233 220 217 225 223 222 222 237 236 226 224 231 191 180 177 180 173 174 169 165 163
278 274 278 276 274 265 255 250 247 236 235 232 224 202 253 245 318 288 256 357 334 266 235 212 211 218 218 216 218 230 241 228 214 208 225 173 177 179 177 175 169 165 163
285 281 278 274 268 263 258 257 257 247 234 226 221 222 225 219 181 316 295 292 38 45 199 205 209 215 210 212 219 234 250 226 219 196 180 165 178 179 168 172 168 163 162
292 283 278 273 267 262 258 255 253 246 230 227 218 214 220 222 213 151 287 317 106 60 63 172 201 208 198 199 207 210 232 218 213 197 184 182 181 175 168 171 167 164 164
291 285 282 276 271 265 259 252 249 244 240 243 228 216 209 199 197 173 201 255 286 335 52 133 162 180 191 199 196 195 217 233 219 200 188 180 177 170 166 173 168 166 166
291 291 288 282 279 276 271 257 243 250 246 231 224 218 218 209 206 205 198 200 246 275 24 109 132 140 165 165 175 181 203 259 183 191 191 181 174 168 167 176 167 168 167
295 295 289 279 279 284 273 260 241 232 228 238 234 217 205 204 204 209 198 181 183 241 13 58 126 133 137 150 156 172 188 193 180 187 191 165 168 168 168 173 169 167 167
302 301 294 284 277 275 258 224 253 251 241 225 209 210 207 203 206 208 206 207 181 181 208 179 126 141 132 140 165 167 177 155 177 172 169 167 168 169 169 165 163 166 166
313 310 304 273 292 286 252 264 256 255 232 211 212 207 205 201 199 206 207 208 205 175 171 178 115 130 134 136 162 174 168 156 167 166 164 166 172 169 163 164 166 165 164
315 300 289 304 300 293 280 273 248 238 235 220 197 187 191 182 187 189 188 192 201 208 151 149 157 145 132 142 150 164 167 148 161 165 164 164 170 165 168 162 160 162 164
331 325 323 319 310 301 293 278 251 224 207 202 187 185 191 189 182 182 176 181 189 191 150 132 148 141 139 146 145 158 155 148 155 170 168 166 164 163 161 158 160 161 160
338 342 331 319 319 317 308 282 237 213 201 191 186 187 178 177 180 179 172 176 179 190 174 142 129 141 132 128 123 142 141 148 152 164 168 164 162 159 158 158 159 160 156
343 339 344 337 333 328 311 275 219 198 192 188 183 186 180 170 172 156 161 169 180 186 191 143 119 135 132 144 130 141 125 146 145 154 161 161 164 159 159 158 159 155 153
352 353 348 349 346 341 308 234 201 188 177 173 174 177 177 176 171 171 166 164 169 177 182 178 129 127 137 152 143 155 144 136 128 150 149 155 155 157 153 155 156 156 155
360 359 355 352 356 358 289 199 185 175 167 162 154 159 162 166 162 157 159 162 168 167 168 168 150 137 155 158 153 154 142 129 119 147 131 137 158 148 154 154 157 159 158
1 0 0 8 10 32 50 135 153 158 149 147 143 149 152 147 151 153 158 164 164 176 174 168 155 147 155 154 159 151 155 119 103 127 139 92 143 135 150 151 155 155 154
4 4 10 20 35 56 81 105 129 136 135 136 140 147 143 146 148 147 151 160 163 171 175 167 141 140 157 163 158 147 135 115 117 125 134 100 125 122 141 148 152 151 151
11 15 23 32 46 70 86 94 106 120 121 126 131 135 139 140 150 149 150 155 161 168 170 167 155 145 161 154 155 143 133 122 105 95 110 115 115 120 133 138 144 150 150
20 25 36 40 58 68 81 85 98 112 117 120 124 129 141 144 149 150 157 159 159 161 162 165 144 148 156 149 156 146 139 119 119 102 136 125 125 124 92 120 137 146 150